Change the Weather History Date:

Tuesday, April 22, 2014

  Actual Average (KSZT) Record (KSZT)
Temperature  
Mean Temperature 44 °F -  
Max Temperature 48 °F 60 °F 85 °F (1934)
Min Temperature 39 °F 35 °F 24 °F (1960)
Degree Days  
Heating Degree Days 22    
Moisture  
Dew Point 39 °F    
Average Humidity 84    
Maximum Humidity 100    
Minimum Humidity 70    
Precipitation  
Precipitation 0.09 in - - ()
Sea Level Pressure  
Sea Level Pressure 29.70 in    
Wind  
Wind Speed 4 mph (SW)    
Max Wind Speed 13 mph    
Max Gust Speed 21 mph    
Visibility 9 miles    
Events Rain    
Averages and records for this station are not official NWS values.
T = Trace of Precipitation, MM = Missing Value Source: NWS Daily Summary

Daily Weather History Graph

Daily Weather History Graph

Search for Another Location

Airport or City:

Trip Planner

Search our weather history database for the weather conditions in past years. The results will help you decide how hot, cold, wet, or windy it might be!

Date:

Astronomy

Apr. 22, 2014 Rise Set
Actual Time 5:40 AM PDT 7:47 PM PDT
Civil Twilight 5:06 AM PDT 8:21 PM PDT
Nautical Twilight 4:24 AM PDT 9:04 PM PDT
Astronomical Twilight 3:37 AM PDT 9:51 PM PDT
Moon 2:07 AM PDT (4/22) 12:20 PM PDT (4/22)
Length of Visible Light 15h 14m
Length of Day
14h 06m
Last Quarter, 45% of the Moon is Illuminated
Apr 22
Last Quarter
Apr 28
New
May 6
First Quarter
May 14
Full
May 21
Last Quarter

Hourly Weather History & Observations

Time (PDT) Temp. Windchill Dew Point Humidity Pressure Visibility Wind Dir Wind Speed Gust Speed Precip Events Conditions
12:15 AM 44.6 °F 40.7 °F 39.2 °F 81% 29.83 in 10.0 mi NNW 6.9 mph - N/A   Clear
12:35 AM 42.8 °F 39.3 °F 39.2 °F 87% 29.82 in 10.0 mi NNW 5.8 mph - N/A   Clear
12:55 AM 44.6 °F 40.7 °F 39.2 °F 81% 29.81 in 10.0 mi North 6.9 mph - N/A   Scattered Clouds
1:15 AM 44.6 °F 41.4 °F 39.2 °F 81% 29.80 in 10.0 mi North 5.8 mph - N/A   Mostly Cloudy
1:35 AM 44.6 °F 41.4 °F 39.2 °F 81% 29.79 in 10.0 mi North 5.8 mph - N/A   Scattered Clouds
1:55 AM 41.0 °F - 39.2 °F 93% 29.77 in 10.0 mi Calm Calm - N/A   Mostly Cloudy
2:15 AM 41.0 °F - 39.2 °F 93% 29.76 in 10.0 mi Calm Calm - N/A   Mostly Cloudy
2:35 AM 41.0 °F - 39.2 °F 93% 29.75 in 10.0 mi Calm Calm - N/A   Mostly Cloudy
2:55 AM 41.0 °F - 39.2 °F 93% 29.73 in 10.0 mi Calm Calm - N/A   Overcast
3:15 AM 41.0 °F - 39.2 °F 93% 29.72 in 10.0 mi Calm Calm - N/A   Overcast
3:35 AM 44.6 °F - 39.2 °F 81% 29.72 in 10.0 mi Calm Calm - N/A   Overcast
3:55 AM 41.0 °F 39.0 °F 39.2 °F 93% 29.72 in 10.0 mi NNE 3.5 mph - N/A   Overcast
4:15 AM 41.0 °F - 39.2 °F 93% 29.72 in 10.0 mi Calm Calm - N/A   Overcast
4:35 AM 41.0 °F 38.0 °F 39.2 °F 93% 29.72 in 10.0 mi SSE 4.6 mph - N/A   Overcast
4:55 AM 41.0 °F - 39.2 °F 93% 29.71 in 10.0 mi Calm Calm - N/A   Overcast
5:15 AM 41.0 °F - 39.2 °F 93% 29.71 in 10.0 mi Calm Calm - N/A   Overcast
5:35 AM 41.0 °F - 39.2 °F 93% 29.69 in 10.0 mi Calm Calm - N/A   Mostly Cloudy
5:55 AM 39.2 °F - 37.4 °F 93% 29.68 in 9.0 mi Calm Calm - N/A   Mostly Cloudy
6:15 AM 41.0 °F 39.0 °F 39.2 °F 93% 29.67 in 10.0 mi NE 3.5 mph - N/A   Scattered Clouds
6:35 AM 41.0 °F - 39.2 °F 93% 29.67 in 10.0 mi Calm Calm - N/A   Mostly Cloudy
6:55 AM 42.8 °F 39.3 °F 39.2 °F 87% 29.67 in 10.0 mi North 5.8 mph - N/A   Scattered Clouds
7:15 AM 42.8 °F - 39.2 °F 87% 29.67 in 10.0 mi Calm Calm - N/A   Scattered Clouds
7:35 AM 42.8 °F - 39.2 °F 87% 29.67 in 10.0 mi Calm Calm - N/A   Mostly Cloudy
7:55 AM 41.0 °F - 39.2 °F 93% 29.68 in 10.0 mi Calm Calm - N/A   Overcast
8:15 AM 41.0 °F - 39.2 °F 93% 29.68 in 8.0 mi Calm Calm - N/A Rain Light Rain
8:35 AM 41.0 °F - 39.2 °F 93% 29.68 in 4.0 mi Calm Calm - 0.02 in Rain Light Rain
8:55 AM 41.0 °F - 39.2 °F 93% 29.68 in 5.0 mi Calm Calm - 0.04 in Rain Light Rain
9:15 AM 41.0 °F - 41.0 °F 100% 29.68 in 3.0 mi Calm Calm - 0.02 in Rain Light Rain
9:35 AM 41.0 °F 39.0 °F 41.0 °F 100% 29.68 in 5.0 mi East 3.5 mph - 0.04 in Rain Light Rain
9:55 AM 42.8 °F - 41.0 °F 93% 29.68 in 5.0 mi Calm Calm - 0.05 in Rain Light Rain
10:15 AM 44.6 °F - 41.0 °F 87% 29.67 in 8.0 mi Calm Calm - N/A Rain Light Rain
10:35 AM 44.6 °F - 41.0 °F 87% 29.66 in 10.0 mi Calm Calm - N/A   Overcast
10:55 AM 44.6 °F - 41.0 °F 87% 29.67 in 10.0 mi Calm Calm - N/A   Overcast
11:15 AM 44.6 °F - 41.0 °F 87% 29.67 in 5.0 mi Calm Calm - N/A   Mostly Cloudy
11:35 AM 44.6 °F - 41.0 °F 87% 29.67 in 8.0 mi Calm Calm - N/A   Overcast
11:55 AM 44.6 °F - 41.0 °F 87% 29.67 in 9.0 mi Calm Calm - N/A   Overcast
12:15 PM 44.6 °F - 42.8 °F 93% 29.66 in 6.0 mi Calm Calm - N/A   Mostly Cloudy
12:35 PM 44.6 °F 43.1 °F 42.8 °F 93% 29.67 in 5.0 mi South 3.5 mph - N/A Rain Light Rain
12:55 PM 46.4 °F 44.3 °F 44.6 °F 93% 29.67 in 10.0 mi South 4.6 mph - N/A   Scattered Clouds
1:15 PM 46.4 °F 43.5 °F 42.8 °F 87% 29.67 in 10.0 mi SSW 5.8 mph - N/A   Mostly Cloudy
1:35 PM 46.4 °F 41.1 °F 41.0 °F 81% 29.67 in 10.0 mi SSW 11.5 mph - N/A   Mostly Cloudy
1:55 PM 46.4 °F 41.5 °F 41.0 °F 81% 29.67 in 9.0 mi SSW 10.4 mph - N/A Rain Light Rain
2:15 PM 46.4 °F 41.5 °F 41.0 °F 81% 29.67 in 9.0 mi SSW 10.4 mph 17.3 mph N/A   Partly Cloudy
2:35 PM 46.4 °F 41.5 °F 41.0 °F 81% 29.68 in 10.0 mi SSW 10.4 mph - N/A   Mostly Cloudy
2:55 PM 46.4 °F 41.9 °F 41.0 °F 81% 29.67 in 10.0 mi SSW 9.2 mph - N/A   Scattered Clouds
3:15 PM 46.4 °F 41.1 °F 41.0 °F 81% 29.67 in 10.0 mi SSW 11.5 mph 16.1 mph N/A   Mostly Cloudy
3:35 PM 46.4 °F 42.4 °F 41.0 °F 81% 29.67 in 10.0 mi SSW 8.1 mph - N/A   Partly Cloudy
3:55 PM 46.4 °F 41.5 °F 41.0 °F 81% 29.68 in 7.0 mi SSW 10.4 mph - N/A Rain Light Rain
4:15 PM 46.4 °F 40.7 °F 41.0 °F 81% 29.68 in 10.0 mi South 12.7 mph 18.4 mph N/A   Clear
4:35 PM 46.4 °F 42.4 °F 41.0 °F 81% 29.68 in 10.0 mi SSW 8.1 mph 17.3 mph N/A   Mostly Cloudy
4:55 PM 48.2 °F - 41.0 °F 76% 29.68 in 10.0 mi SW 8.1 mph - N/A   Mostly Cloudy
5:15 PM 46.4 °F 42.9 °F 39.2 °F 76% 29.69 in 10.0 mi SSW 6.9 mph - N/A   Overcast
5:35 PM 46.4 °F 41.9 °F 39.2 °F 76% 29.69 in 10.0 mi SSW 9.2 mph 20.7 mph N/A   Mostly Cloudy
5:55 PM 46.4 °F 43.5 °F 39.2 °F 76% 29.68 in 10.0 mi SSW 5.8 mph - N/A   Partly Cloudy
6:15 PM 46.4 °F - 37.4 °F 71% 29.68 in 10.0 mi Calm Calm - N/A   Clear
6:35 PM 46.4 °F 42.9 °F 37.4 °F 71% 29.68 in 10.0 mi SSW 6.9 mph - N/A   Clear
6:55 PM 46.4 °F 43.5 °F 39.2 °F 76% 29.68 in 10.0 mi SW 5.8 mph - N/A   Clear
7:15 PM 44.6 °F 40.7 °F 39.2 °F 81% 29.67 in 10.0 mi SW 6.9 mph - N/A   Clear
7:35 PM 44.6 °F 40.7 °F 39.2 °F 81% 29.69 in 10.0 mi SW 6.9 mph - N/A   Scattered Clouds
7:55 PM 44.6 °F 39.7 °F 39.2 °F 81% 29.69 in 10.0 mi WSW 9.2 mph - N/A   Overcast
8:15 PM 44.6 °F 40.7 °F 37.4 °F 76% 29.69 in 10.0 mi SW 6.9 mph - N/A   Scattered Clouds
8:35 PM 42.8 °F 39.3 °F 35.6 °F 76% 29.70 in 10.0 mi SW 5.8 mph - N/A   Clear
8:55 PM 42.8 °F 38.6 °F 33.8 °F 70% 29.70 in 10.0 mi SW 6.9 mph - N/A   Mostly Cloudy
9:15 PM 41.0 °F 37.1 °F 33.8 °F 76% 29.70 in 10.0 mi SW 5.8 mph - N/A   Scattered Clouds
9:35 PM 41.0 °F 37.1 °F 33.8 °F 76% 29.71 in 10.0 mi SW 5.8 mph - N/A   Mostly Cloudy
9:55 PM 41.0 °F 34.7 °F 33.8 °F 76% 29.72 in 10.0 mi SSW 10.4 mph 16.1 mph N/A   Mostly Cloudy
10:15 PM 41.0 °F 37.1 °F 33.8 °F 76% 29.72 in 10.0 mi SSW 5.8 mph - N/A   Mostly Cloudy
10:35 PM 41.0 °F 36.4 °F 32.0 °F 70% 29.73 in 10.0 mi SW 6.9 mph - N/A   Overcast
10:55 PM 41.0 °F 36.4 °F 32.0 °F 70% 29.73 in 10.0 mi SSW 6.9 mph - N/A   Mostly Cloudy
11:15 PM 41.0 °F 37.1 °F 32.0 °F 70% 29.73 in 10.0 mi SSW 5.8 mph - N/A   Overcast
11:35 PM 39.2 °F 33.6 °F 32.0 °F 75% 29.73 in 10.0 mi WSW 8.1 mph - N/A   Scattered Clouds
11:55 PM 39.2 °F 33.0 °F 32.0 °F 75% 29.75 in 10.0 mi WSW 9.2 mph - N/A   Clear